"2009-02-19 00:00:30",642588,11.25,321.3,5.533,1.241,7.407,101.1999,2.361,3.587,24.83,0,109.8,13.46,3.12,283.3
"2009-02-19 00:01:00",642589,12.67,326.8,5.447,0.612,7.576,101.2148,2.399,3.595,24.93,0,109.8,13.46,3.16,288.8
"2009-02-19 00:01:30",642590,12.09,328.2,5.268,0.646,7.471,101.2205,2.413,3.611,24.85,0,109.8,13.46,3.17,290.2
"2009-02-19 00:02:00",642591,10.93,324,5.299,0.614,7.548,101.221,2.415,3.635,24.81,0,109.8,13.46,3.18,286.0
"2009-02-19 00:02:30",642592,10.26,323.4,5.823,0.665,7.461,101.2216,2.416,3.643,24.72,0,109.8,13.46,3.18,285.4
"2009-02-19 00:03:00",642593,9.26,324.9,4.044,0.919,7.494,101.2397,2.462,3.653,24.59,0,109.8,13.46,3.22,286.9
"2009-02-19 00:03:30",642594,7.462,321.2,5.764,0.778,7.035,101.2584,2.51,3.677,24.66,0,109.8,13.46,3.27,283.2
"2009-02-19 00:04:00",642595,8.63,328.8,5.078,0.628,6.842,101.2607,2.516,3.709,24.67,0,109.8,13.46,3.28,290.8
"2009-02-19 00:04:30",642596,9.25,338.8,7.657,0.782,6.479,101.2635,2.523,3.708,24.78,0,109.8,13.45,3.28,300.8
"2009-02-19 00:05:00",642597,9.31,324.5,6.872,1.211,6.386,101.2647,2.526,3.713,24.74,0,109.8,13.45,3.29,286.5
"2009-02-19 00:05:30",642598,10.49,318.3,8.02,1.286,4.57,101.2695,2.538,3.621,24.82,0,109.8,13.45,3.30,280.3
"2009-02-19 00:06:00",642599,11.63,322.2,6.617,1.363,5.419,101.2704,2.541,3.676,24.82,0,109.8,13.45,3.30,284.2
"2009-02-19 00:06:30",642600,11.02,330.7,6.267,1.233,6.015,101.2707,2.542,3.664,24.8,0,109.8,13.45,3.30,292.7
"2009-02-19 00:07:00",642601,10.97,324.3,6.371,1.065,6.258,101.2727,2.547,3.68,24.75,0,109.8,13.46,3.31,286.3
"2009-02-19 00:07:30",642602,10.89,327.6,5.333,0.802,7.617,101.2753,2.553,3.731,24.65,0,109.8,13.46,3.31,289.6
"2009-02-19 00:08:00",642603,11,331.2,6.695,0.8,7.764,101.2733,2.548,3.759,24.53,0,109.8,13.46,3.31,293.2
"2009-02-19 00:08:30",642604,10.2,326.4,6.838,0.955,7.601,101.277,2.558,3.727,24.47,0,109.8,13.46,3.32,288.4
"2009-02-19 00:09:00",642605,10.16,331.5,5.04,0.823,7.449,101.2787,2.562,3.736,24.47,0,109.8,13.46,3.32,293.5
"2009-02-19 00:09:30",642606,9.93,335.9,4.611,0.765,7.043,101.2781,2.56,3.756,24.65,0,109.8,13.46,3.32,297.9
"2009-02-19 00:10:00",642607,10.18,335.3,4.474,0.598,6.915,101.2793,2.563,3.769,24.87,0,109.8,13.46,3.32,297.3
"2009-02-19 00:10:30",642608,9.76,334.9,4.453,0.667,6.806,101.2798,2.565,3.748,24.9,0,109.8,13.46,3.33,296.9
"2009-02-19 00:11:00",642609,10.04,335.8,5.143,0.786,6.851,101.2784,2.561,3.726,24.9,0,109.8,13.46,3.32,297.8
"2009-02-19 00:11:30",642610,10.75,339.2,5.961,1.029,6.604,101.2708,2.542,3.722,25,0,109.8,13.46,3.30,301.2
"2009-02-19 00:12:00",642611,10.33,337.2,4.957,0.922,6.697,101.2635,2.523,3.731,24.81,0,109.8,13.46,3.28,299.2
"2009-02-19 00:12:30",642612,9.72,345.5,4.535,0.945,6.668,101.2711,2.543,3.712,24.65,0,109.8,13.46,3.30,307.5
"2009-02-19 00:13:00",642613,10.87,345.2,4.723,0.656,6.815,101.2802,2.566,3.727,24.63,0,109.8,13.46,3.33,307.2
"2009-02-19 00:13:30",642614,10.41,341.2,6.769,1.038,6.464,101.2836,2.574,3.725,24.64,0,109.8,13.46,3.34,303.2
"2009-02-19 00:14:00",642615,10.6,329.6,6.554,1.303,5.719,101.2861,2.581,3.647,24.58,0,109.8,13.46,3.34,291.6
"2009-02-19 00:14:30",642616,11.5,336.1,5.057,0.995,6.37,101.2681,2.535,3.689,24.8,0,109.8,13.46,3.30,298.1
"2009-02-19 00:15:00",642617,11.79,336.1,4.144,1.192,6.654,101.2522,2.494,3.7,24.93,0,109.8,13.46,3.26,298.1
"2009-02-19 00:15:30",642618,11.89,331.6,3.567,0.803,6.881,101.2528,2.496,3.688,25.02,0,109.8,13.46,3.26,293.6
"2009-02-19 00:16:00",642619,11.94,336.6,4.342,0.653,6.947,101.2415,2.467,3.667,25.58,0,109.8,13.46,3.23,298.6
"2009-02-19 00:16:30",642620,10.3,340,7.498,0.945,7.009,101.2203,2.413,3.669,26.34,0,109.8,13.46,3.17,302.0
"2009-02-19 00:17:00",642621,10.8,339.1,6.416,0.976,7.071,101.2005,2.362,3.614,26.55,0,109.8,13.46,3.12,301.1
"2009-02-19 00:17:30",642622,11.81,337,4.112,0.875,6.851,101.187,2.328,3.59,26.48,0,109.8,13.46,3.09,299.0
"2009-02-19 00:18:00",642623,12.03,336.3,4.049,0.918,6.882,101.1734,2.293,3.555,26.45,0,109.8,13.46,3.05,298.3
"2009-02-19 00:18:30",642624,12.63,337.9,4.984,0.681,7.239,101.1587,2.256,3.518,25.68,0,109.8,13.46,3.02,299.9
"2009-02-19 00:19:00",642625,12.76,339.5,3.31,0.584,7.461,101.1626,2.266,3.517,25.2,0,109.8,13.47,3.03,301.5
"2009-02-19 00:19:30",642626,13.01,335.9,3.345,0.802,7.1,101.1641,2.269,3.5,25.14,0,109.8,13.47,3.03,297.9
"2009-02-19 00:20:00",642627,13.59,336.2,4.542,0.701,7.275,101.1573,2.252,3.507,25.17,0,109.8,13.46,3.01,298.2
"2009-02-19 00:20:30",642628,12.91,340.8,4.41,0.822,7.403,101.1539,2.243,3.486,25.23,0,109.8,13.46,3.00,302.8
"2009-02-19 00:21:00",642629,13.04,336.9,4.372,0.829,7.628,101.1533,2.242,3.498,25.08,0,109.8,13.46,3.00,298.9
"2009-02-19 00:21:30",642630,12.03,337.1,3.988,0.808,7.556,101.1547,2.246,3.49,24.94,0,109.8,13.46,3.01,299.1
"2009-02-19 00:22:00",642631,11.49,333.4,3.346,0.763,7.549,101.1624,2.265,3.492,24.83,0,109.8,13.46,3.03,295.4
"2009-02-19 00:22:30",642632,11.74,334.1,6.011,0.69,7.636,101.1751,2.298,3.498,24.69,0,109.8,13.46,3.06,296.1
"2009-02-19 00:23:00",642633,11.85,336.4,4.228,0.842,7.555,101.1853,2.324,3.508,24.62,0,109.7,13.46,3.08,298.4
"2009-02-19 00:23:30",642634,11.51,335.1,4.669,0.566,7.491,101.187,2.328,3.501,24.5,0,109.8,13.46,3.09,297.1
"2009-02-19 00:24:00",642635,10.99,335.6,5.814,0.537,7.457,101.1872,2.329,3.52,24.4,0,109.7,13.46,3.09,297.6
"2009-02-19 00:24:30",642636,11.95,336.6,4.949,0.817,7.335,101.1872,2.329,3.511,24.34,0,109.7,13.46,3.09,298.6
"2009-02-19 00:25:00",642637,11.88,333.9,3.136,0.676,7.329,101.1872,2.329,3.517,24.26,0,109.7,13.46,3.09,295.9
"2009-02-19 00:25:30",642638,11.65,332.1,3.589,0.766,7.29,101.1872,2.329,3.525,24.16,0,109.7,13.47,3.09,294.1
"2009-02-19 00:26:00",642639,12.07,332.4,4.159,0.766,7.277,101.1892,2.334,3.544,24.23,0,109.7,13.47,3.09,294.4
"2009-02-19 00:26:30",642640,12.35,333.7,3.957,0.671,7.386,101.1872,2.329,3.565,24.42,0,109.7,13.47,3.09,295.7
"2009-02-19 00:27:00",642641,12.04,336.9,2.215,0.792,7.422,101.1872,2.329,3.561,24.48,0,109.7,13.47,3.09,298.9
"2009-02-19 00:27:30",642642,12.03,334.8,3.909,0.691,7.455,101.1872,2.329,3.55,24.41,0,109.7,13.47,3.09,296.8
"2009-02-19 00:28:00",642643,11.82,332.2,4.137,0.647,7.509,101.1875,2.329,3.55,24.31,0,109.7,13.47,3.09,294.2
"2009-02-19 00:28:30",642644,11.22,333.3,3.546,0.705,7.419,101.1904,2.337,3.574,24.25,0,109.7,13.47,3.10,295.3
"2009-02-19 00:29:00",642645,11.65,334.4,2.993,0.578,7.533,101.1935,2.345,3.581,24.27,0,109.7,13.47,3.10,296.4
"2009-02-19 00:29:30",642646,11.87,334.2,3.661,0.676,7.331,101.1927,2.342,3.573,24.23,0,109.7,13.48,3.10,296.2
"2009-02-19 00:30:00",642647,11.77,334.2,4.04,0.603,7.351,101.1915,2.34,3.572,24.31,0,109.7,13.47,3.10,296.2
"2009-02-19 00:30:30",642648,11.46,332.9,3.308,0.792,7.233,101.1944,2.347,3.557,24.57,0,109.7,13.48,3.11,294.9
"2009-02-19 00:31:00",642649,11.95,334.1,4.103,0.62,7.434,101.1961,2.351,3.553,24.34,0,109.7,13.48,3.11,296.1
"2009-02-19 00:31:30",642650,10.8,337,4.133,0.751,7.504,101.1973,2.354,3.545,24.16,0,109.7,13.48,3.11,299.0
"2009-02-19 00:32:00",642651,10.64,333.9,3.6,0.737,7.43,101.1998,2.361,3.559,24.12,0,109.7,13.48,3.12,295.9
"2009-02-19 00:32:30",642652,10.57,336.1,3.607,0.823,7.256,101.2021,2.367,3.554,24.06,0,109.7,13.48,3.13,298.1
"2009-02-19 00:33:00",642653,11.35,332.7,4.071,0.555,7.28,101.2044,2.372,3.559,23.98,0,109.7,13.48,3.13,294.7
"2009-02-19 00:33:30",642654,10.96,330.8,4.717,0.702,7.149,101.205,2.374,3.576,23.83,0,109.7,13.48,3.13,292.8
"2009-02-19 00:34:00",642655,11.21,332.1,4.134,0.726,7.11,101.205,2.374,3.591,23.82,0,109.7,13.48,3.13,294.1
"2009-02-19 00:34:30",642656,10.07,334.6,4.164,0.72,7.297,101.2056,2.375,3.58,23.87,0,109.7,13.49,3.14,296.6
"2009-02-19 00:35:00",642657,10.53,332.3,4.452,0.734,7.49,101.2061,2.377,3.574,23.72,0,109.7,13.49,3.14,294.3
"2009-02-19 00:35:30",642658,10.88,327.8,3.815,0.704,7.015,101.2067,2.378,3.583,23.74,0,109.7,13.49,3.14,289.8
"2009-02-19 00:36:00",642659,11.24,330.8,4.254,0.596,7.096,101.2078,2.381,3.586,23.91,0,109.7,13.49,3.14,292.8
"2009-02-19 00:36:30",642660,11.03,333.5,3.083,0.807,7.112,101.2014,2.365,3.563,23.92,0,109.7,13.48,3.13,295.5
"2009-02-19 00:37:00",642661,10.68,332.5,3.206,0.67,7.312,101.1937,2.345,3.559,23.91,0,109.7,13.48,3.11,294.5
"2009-02-19 00:37:30",642662,10.49,329.3,3.127,0.767,7.222,101.183,2.318,3.543,23.87,0,109.7,13.48,3.08,291.3
"2009-02-19 00:38:00",642663,11.85,328.1,3.74,0.724,6.885,101.1799,2.31,3.545,24.47,0,109.7,13.48,3.07,290.1
"2009-02-19 00:38:30",642664,11.73,327.6,5.235,0.661,7.298,101.1689,2.282,3.516,24.76,0,109.7,13.48,3.04,289.6
"2009-02-19 00:39:00",642665,11.56,330.2,4,0.574,7.325,101.148,2.228,3.504,24.76,0,109.7,13.48,2.99,292.2
"2009-02-19 00:39:30",642666,11.5,331.2,4.715,0.474,7.607,101.146,2.223,3.469,24.36,0,109.7,13.48,2.98,293.2
"2009-02-19 00:40:00",642667,10.97,333.3,4.824,0.709,7.481,101.1471,2.226,3.48,24.07,0,109.7,13.48,2.99,295.3
"2009-02-19 00:40:30",642668,11.03,336.4,4.027,0.729,7.292,101.1474,2.227,3.456,24.31,0,109.7,13.48,2.99,298.4
"2009-02-19 00:41:00",642669,11.03,333,3.028,0.592,7.351,101.15,2.234,3.449,24.39,0,109.7,13.48,2.99,295.0
"2009-02-19 00:41:30",642670,10.53,334.4,4.143,0.803,7.29,101.1514,2.237,3.449,24.15,0,109.7,13.49,3.00,296.4
"2009-02-19 00:42:00",642671,9.96,336.7,3.614,0.692,7.186,101.1529,2.241,3.452,24.08,0,109.7,13.49,3.00,298.7
"2009-02-19 00:42:30",642672,10.75,338.8,3.399,0.642,6.843,101.1537,2.243,3.452,24.41,0,109.7,13.49,3.00,300.8
"2009-02-19 00:43:00",642673,11.62,338.8,3.819,0.627,7.025,101.1526,2.24,3.43,24.73,0,109.7,13.49,3.00,300.8
"2009-02-19 00:43:30",642674,11.58,339,3.441,0.551,6.801,101.1427,2.215,3.424,24.71,0,109.7,13.49,2.97,301.0
"2009-02-19 00:44:00",642675,11.66,336.7,4.245,0.669,6.959,101.126,2.172,3.432,24.81,0,109.7,13.49,2.93,298.7
"2009-02-19 00:44:30",642676,11.29,338.1,3.461,0.85,6.972,101.1201,2.157,3.396,24.69,0,109.7,13.49,2.92,300.1
"2009-02-19 00:45:00",642677,11.32,338.3,3.57,0.683,7.283,101.1201,2.157,3.4,24.41,0,109.7,13.5,2.92,300.3
"2009-02-19 00:45:30",642678,11.44,338.8,4.125,0.563,7.224,101.1235,2.166,3.402,24.25,0,109.7,13.5,2.93,300.8
"2009-02-19 00:46:00",642679,11.36,337.2,3.861,0.854,7.116,101.1365,2.199,3.413,24.17,0,109.7,13.5,2.96,299.2
"2009-02-19 00:46:30",642680,11.78,338.9,3.361,0.695,7.214,101.1455,2.222,3.398,24.13,0,109.7,13.5,2.98,300.9
"2009-02-19 00:47:00",642681,11.51,340.6,3.457,0.618,7.31,101.1526,2.24,3.41,24.05,0,109.7,13.5,3.00,302.6
"2009-02-19 00:47:30",642682,11.11,338.5,4.799,0.488,7.328,101.1537,2.243,3.43,23.97,0,109.7,13.5,3.00,300.5
"2009-02-19 00:48:00",642683,10.28,341.4,4.884,0.932,7.26,101.1537,2.243,3.441,23.9,0,109.7,13.5,3.00,303.4
"2009-02-19 00:48:30",642684,10.19,332.6,7.767,0.853,6.99,101.1537,2.243,3.44,24.06,0,109.7,13.5,3.00,294.6
"2009-02-19 00:49:00",642685,11.32,329,5.207,0.438,6.76,101.1509,2.236,3.447,24.99,0,109.7,13.5,3.00,291.0
"2009-02-19 00:49:30",642686,11.58,334.7,3.886,0.613,6.836,101.1218,2.161,3.443,25.27,0,109.7,13.5,2.92,296.7
"2009-02-19 00:50:00",642687,12.42,334.5,3.722,0.996,6.936,101.1186,2.154,3.412,25.35,0,109.7,13.5,2.91,296.5
"2009-02-19 00:50:30",642688,12.37,338.4,3.471,0.761,7.069,101.104,2.116,3.385,25.22,0,109.7,13.5,2.88,300.4
"2009-02-19 00:51:00",642689,13.06,333.6,4.18,0.969,7.34,101.0892,2.079,3.35,25.11,0,109.7,13.5,2.84,295.6
"2009-02-19 00:51:30",642690,13.7,330.6,3.419,0.76,7.387,101.0887,2.077,3.342,24.43,0,109.7,13.5,2.84,292.6
"2009-02-19 00:52:00",642691,13.65,332.1,3.54,0.761,7.682,101.0884,2.076,3.348,24.47,0,109.7,13.5,2.84,294.1
"2009-02-19 00:52:30",642692,14.26,332.2,4.094,0.547,7.722,101.091,2.083,3.319,24.12,0,109.7,13.5,2.84,294.2
"2009-02-19 00:53:00",642693,15.01,331.4,2.833,0.626,8.07,101.0973,2.099,3.338,23.92,0,109.7,13.5,2.86,293.4
"2009-02-19 00:53:30",642694,14.37,331.6,3.27,0.68,7.955,101.1072,2.124,3.324,23.62,0,109.7,13.5,2.88,293.6
"2009-02-19 00:54:00",642695,13.87,326.8,3.614,0.779,8.33,101.112,2.137,3.35,23.33,0,109.7,13.5,2.90,288.8
"2009-02-19 00:54:30",642696,13.22,327.9,4.631,0.609,8,101.127,2.175,3.344,23.42,0,109.7,13.5,2.93,289.9
"2009-02-19 00:55:00",642697,13.97,326.8,3.293,0.656,7.865,101.1188,2.154,3.355,24.24,0,109.7,13.5,2.91,288.8
"2009-02-19 00:55:30",642698,14.35,327.1,3.512,0.887,7.925,101.1033,2.114,3.338,24.46,0,109.7,13.5,2.87,289.1
"2009-02-19 00:56:00",642699,14.6,328.2,4.952,0.72,8.32,101.1027,2.113,3.344,23.9,0,109.7,13.5,2.87,290.2
"2009-02-19 00:56:30",642700,14.26,329.9,4.623,0.514,8.27,101.1039,2.116,3.322,23.96,0,109.7,13.5,2.88,291.9
"2009-02-19 00:57:00",642701,14.73,328.5,4.247,0.337,8.28,101.105,2.119,3.324,23.97,0,109.7,13.5,2.88,290.5
"2009-02-19 00:57:30",642702,14.97,326.3,4.246,0.79,7.96,101.1065,2.122,3.326,24.83,0,109.7,13.5,2.88,288.3
"2009-02-19 00:58:00",642703,14.74,330.4,4.371,0.642,7.898,101.0822,2.06,3.338,25.68,0,109.7,13.5,2.82,292.4
"2009-02-19 00:58:30",642704,14.27,328.1,4.385,0.878,8.04,101.0717,2.034,3.301,25.78,0,109.7,13.5,2.79,290.1
"2009-02-19 00:59:00",642705,16.08,328,4.267,1.249,8.27,101.0525,1.985,3.255,25.62,0,109.7,13.5,2.74,290.0
"2009-02-19 00:59:30",642706,15.72,324.4,4.886,1.002,8.02,101.0437,1.962,3.234,25.55,0,109.7,13.51,2.72,286.4
"2009-02-19 01:00:00",642707,15,324.8,5.168,1.149,8.09,101.0423,1.959,3.216,26.32,0,109.7,13.51,2.72,286.8
"2009-02-19 01:00:30",642708,15.09,328,4.263,0.821,7.923,101.0154,1.89,3.184,26.19,0,109.7,13.51,2.65,290.0
"2009-02-19 01:01:00",642709,15.32,328.2,3.592,0.646,8.37,101.0109,1.879,3.17,26.41,0,109.7,13.51,2.64,290.2
"2009-02-19 01:01:30",642710,14.7,324.8,3.907,0.766,8.38,101.0106,1.878,3.137,26.2,0,109.7,13.51,2.64,286.8
"2009-02-19 01:02:00",642711,15.47,325.8,4.032,0.585,8.47,101.0138,1.886,3.132,25.58,0,109.7,13.51,2.64,287.8
"2009-02-19 01:02:30",642712,15.87,325.5,4.014,0.685,8.87,101.014,1.887,3.111,24.85,0,109.7,13.51,2.65,287.5
"2009-02-19 01:03:00",642713,15.65,325.1,4.649,0.633,8.86,101.0409,1.955,3.139,24.36,0,109.6,13.51,2.71,287.1
"2009-02-19 01:03:30",642714,14.45,328.2,3.901,1.099,8.64,101.0517,1.983,3.135,24.16,0,109.6,13.51,2.74,290.2
"2009-02-19 01:04:00",642715,14.69,327.2,4.135,1.066,8.38,101.0661,2.02,3.18,24.53,0,109.6,13.52,2.78,289.2
"2009-02-19 01:04:30",642716,14.15,330.9,4.049,0.714,8.29,101.0811,2.058,3.167,24.76,0,109.6,13.51,2.82,292.9
"2009-02-19 01:05:00",642717,14.17,329.7,4.369,0.651,8.51,101.0862,2.071,3.199,24.53,0,109.6,13.52,2.83,291.7
"2009-02-19 01:05:30",642718,13.28,329.7,3.241,0.78,8.36,101.0862,2.071,3.219,24.23,0,109.6,13.52,2.83,291.7
"2009-02-19 01:06:00",642719,12.46,332.2,4.697,0.74,8.23,101.0978,2.1,3.261,24.03,0,109.6,13.52,2.86,294.2
"2009-02-19 01:06:30",642720,12.35,334.7,4.313,0.831,8.11,101.1159,2.147,3.284,24.07,0,109.6,13.52,2.91,296.7
"2009-02-19 01:07:00",642721,13.38,333.3,4.041,0.739,8.11,101.1202,2.157,3.29,24.18,0,109.6,13.52,2.92,295.3
"2009-02-19 01:07:30",642722,13.33,332.2,3.513,0.898,7.681,101.1202,2.157,3.281,24.22,0,109.7,13.52,2.92,294.2
"2009-02-19 01:08:00",642723,12.86,332.1,4.628,0.802,7.886,101.1202,2.157,3.318,24.37,0,109.6,13.52,2.92,294.1
"2009-02-19 01:08:30",642724,12.34,334,3.786,0.76,7.774,101.1202,2.157,3.333,24.38,0,109.6,13.52,2.92,296.0
"2009-02-19 01:09:00",642725,13,329.5,4.452,1.02,7.745,101.1202,2.157,3.315,24.28,0,109.6,13.52,2.92,291.5
"2009-02-19 01:09:30",642726,13.75,324.8,4.146,0.692,7.651,101.1202,2.157,3.303,24.55,0,109.6,13.51,2.92,286.8
"2009-02-19 01:10:00",642727,13.96,320.9,3.555,0.663,7.766,101.1153,2.145,3.331,24.5,0,109.6,13.51,2.90,282.9
"2009-02-19 01:10:30",642728,12.73,323,4.799,0.696,7.685,101.1055,2.12,3.324,24.49,0,109.6,13.51,2.88,285.0
"2009-02-19 01:11:00",642729,13.43,327.9,5.268,1.222,7.728,101.0941,2.091,3.309,24.63,0,109.6,13.51,2.85,289.9
"2009-02-19 01:11:30",642730,14.18,325.3,4.643,1.3,7.451,101.0862,2.071,3.299,25.62,0,109.6,13.51,2.83,287.3
"2009-02-19 01:12:00",642731,14.53,322.3,4.258,1.037,7.693,101.0752,2.043,3.288,25.76,0,109.6,13.51,2.80,284.3
"2009-02-19 01:12:30",642732,13.52,326.3,4.178,0.857,7.64,101.0548,1.991,3.248,26.1,0,109.6,13.51,2.75,288.3
"2009-02-19 01:13:00",642733,13.76,329,4.126,0.725,7.83,101.0426,1.96,3.225,26.38,0,109.6,13.51,2.72,291.0
"2009-02-19 01:13:30",642734,13.59,325.7,4.98,1.168,7.701,101.0189,1.899,3.201,26.8,0,109.6,13.51,2.66,287.7
"2009-02-19 01:14:00",642735,15.43,330.7,3.793,0.822,7.781,101.0093,1.874,3.17,26.62,0,109.6,13.52,2.63,292.7
"2009-02-19 01:14:30",642736,15.89,331.6,4.577,0.7,8.14,100.9963,1.841,3.139,26.33,0,109.6,13.52,2.60,293.6
"2009-02-19 01:15:00",642737,15.35,333.7,3.716,0.623,8.29,100.994,1.835,3.121,25.77,0,109.6,13.52,2.59,295.7
"2009-02-19 01:15:30",642738,14.63,333.9,3.461,0.944,8.07,100.9892,1.823,3.117,25.86,0,109.7,13.52,2.58,295.9
"2009-02-19 01:16:00",642739,13.26,329.5,3.775,0.86,8.19,100.9977,1.845,3.098,25.45,0,109.6,13.52,2.60,291.5
"2009-02-19 01:16:30",642740,13.19,331.3,4.227,0.697,8.19,101.0016,1.855,3.091,25.27,0,109.6,13.52,2.61,293.3
"2009-02-19 01:17:00",642741,14.49,332.2,3.667,0.718,8.22,101.0118,1.881,3.096,25.07,0,109.6,13.52,2.64,294.2
"2009-02-19 01:17:30",642742,15,329.8,3.704,0.638,7.804,101.0175,1.895,3.09,25.2,0,109.6,13.52,2.65,291.8
"2009-02-19 01:18:00",642743,14.65,332.8,3.972,0.603,7.922,101.0149,1.889,3.122,25.74,0,109.6,13.52,2.65,294.8
"2009-02-19 01:18:30",642744,15.25,329.6,4.213,0.694,8.01,101.0101,1.877,3.099,25.53,0,109.6,13.52,2.64,291.6
"2009-02-19 01:19:00",642745,14.71,329.9,3.98,0.58,8.19,101.0096,1.875,3.097,25.45,0,109.6,13.52,2.63,291.9
"2009-02-19 01:19:30",642746,15.14,328,4.608,0.912,8.02,101.0042,1.861,3.106,25.62,0,109.6,13.52,2.62,290.0
"2009-02-19 01:20:00",642747,14.46,332.1,4.727,0.69,7.919,100.9999,1.851,3.106,25.88,0,109.6,13.52,2.61,294.1
"2009-02-19 01:20:30",642748,14.62,330.6,3.526,0.681,8.03,100.9872,1.818,3.073,26.05,0,109.6,13.52,2.58,292.6
"2009-02-19 01:21:00",642749,14.94,328.3,4.193,0.683,8.36,100.9864,1.816,3.074,25.4,0,109.6,13.52,2.57,290.3
"2009-02-19 01:21:30",642750,13.9,323.9,3.598,0.73,8.28,100.998,1.846,3.078,24.78,0,109.6,13.52,2.60,285.9
"2009-02-19 01:22:00",642751,13.9,324.3,4.01,0.691,8.26,101.0124,1.882,3.098,24.52,0,109.6,13.52,2.64,286.3
"2009-02-19 01:22:30",642752,13.51,327.7,3.904,0.892,7.94,101.0178,1.896,3.084,25.31,0,109.6,13.52,2.65,289.7
"2009-02-19 01:23:00",642753,13.92,329,3.439,0.754,7.965,101.0104,1.877,3.091,25.71,0,109.6,13.53,2.64,291.0
"2009-02-19 01:23:30",642754,13.34,327.8,4.391,0.485,7.999,101.0005,1.852,3.084,25.97,0,109.6,13.53,2.61,289.8
"2009-02-19 01:24:00",642755,13.05,324.5,3.834,0.9,7.868,100.9926,1.832,3.077,25.76,0,109.6,13.53,2.59,286.5
"2009-02-19 01:24:30",642756,14.19,324.5,3.532,0.941,7.678,100.9895,1.824,3.085,25.86,0,109.6,13.53,2.58,286.5
"2009-02-19 01:25:00",642757,14.88,326.4,3.117,0.656,7.788,100.9889,1.823,3.067,26.57,0,109.6,13.53,2.58,288.4
"2009-02-19 01:25:30",642758,15.13,327.4,4.032,0.489,7.812,100.9824,1.806,3.051,26.66,0,109.6,13.52,2.56,289.4
"2009-02-19 01:26:00",642759,15.58,327.5,4.254,0.566,7.897,100.968,1.769,3.039,26.85,0,109.6,13.52,2.53,289.5
"2009-02-19 01:26:30",642760,14.98,331,4.073,0.682,8.04,100.9573,1.742,3.019,27.15,0,109.6,13.52,2.50,293.0
"2009-02-19 01:27:00",642761,14.59,330.6,3.605,0.675,8.06,100.9559,1.738,3.018,27.35,0,109.6,13.52,2.50,292.6
"2009-02-19 01:27:30",642762,14.08,329.6,5.335,0.539,8.06,100.9369,1.69,2.981,27.24,0,109.6,13.52,2.45,291.6
"2009-02-19 01:28:00",642763,13.97,324.9,4.87,0.64,7.818,100.9268,1.664,2.978,27.31,0,109.6,13.52,2.42,286.9
"2009-02-19 01:28:30",642764,12.73,332.5,5.506,0.843,7.647,100.9222,1.652,2.923,27.53,0,109.6,13.52,2.41,294.5
"2009-02-19 01:29:00",642765,13.56,335,5.424,0.852,7.684,100.8985,1.592,2.898,27.71,0,109.6,13.52,2.35,297.0
"2009-02-19 01:29:30",642766,13.34,332.3,5.517,0.726,7.665,100.8945,1.582,2.89,27.88,0,109.6,13.52,2.34,294.3
"2009-02-19 01:30:00",642767,13.49,325.7,5.025,0.916,7.686,100.8832,1.553,2.87,27.98,0,109.6,13.52,2.31,287.7
"2009-02-19 01:30:30",642768,14.16,330.6,4.308,0.877,7.546,100.8731,1.527,2.822,28.05,0,109.6,13.52,2.28,292.6
"2009-02-19 01:31:00",642769,12.36,333.1,4.592,0.932,7.63,100.86,1.494,2.798,28.16,0,109.6,13.53,2.25,295.1
"2009-02-19 01:31:30",642770,14.17,329.2,4.77,0.884,7.664,100.8606,1.495,2.768,28.19,0,109.6,13.53,2.25,291.2
"2009-02-19 01:32:00",642771,15.74,332.4,3.773,0.706,7.814,100.8629,1.501,2.762,27.7,0,109.6,13.53,2.26,294.4
"2009-02-19 01:32:30",642772,15.21,332,2.988,0.786,7.916,100.864,1.504,2.731,27.3,0,109.6,13.53,2.26,294.0
"2009-02-19 01:33:00",642773,15.03,333.5,4.854,0.841,8.35,100.8711,1.522,2.741,26.85,0,109.6,13.53,2.28,295.5
"2009-02-19 01:33:30",642774,15.45,333.6,4.834,0.772,8.04,100.8861,1.56,2.768,26.45,0,109.6,13.53,2.32,295.6
"2009-02-19 01:34:00",642775,15.76,331.5,3.098,0.863,7.85,100.8963,1.586,2.784,26.61,0,109.6,13.53,2.34,293.5
"2009-02-19 01:34:30",642776,15.42,331.7,3.34,0.722,8.14,100.9008,1.598,2.777,26.49,0,109.6,13.53,2.36,293.7
"2009-02-19 01:35:00",642777,15.91,330.7,4.23,0.539,8.22,100.9008,1.598,2.787,26.68,0,109.6,13.53,2.36,292.7
"2009-02-19 01:35:30",642778,14.57,333.4,4.05,0.853,7.972,100.9017,1.6,2.795,27.16,0,109.6,13.53,2.36,295.4
"2009-02-19 01:36:00",642779,15.52,331.2,3.981,0.708,8.05,100.9017,1.6,2.813,27.29,0,109.6,13.53,2.36,293.2
"2009-02-19 01:36:30",642780,14.94,332.2,3.946,0.913,7.859,100.8997,1.595,2.781,27.73,0,109.6,13.53,2.35,294.2
"2009-02-19 01:37:00",642781,15.32,332.9,4.598,0.858,8.02,100.8892,1.568,2.782,27.9,0,109.6,13.53,2.33,294.9
"2009-02-19 01:37:30",642782,15.67,331.1,3.727,0.591,7.917,100.8816,1.549,2.782,27.85,0,109.6,13.53,2.31,293.1
"2009-02-19 01:38:00",642783,15.51,330.5,4.002,0.605,7.88,100.8725,1.526,2.778,27.91,0,109.6,13.53,2.28,292.5
"2009-02-19 01:38:30",642784,14.5,332.6,4.04,0.557,7.891,100.8677,1.513,2.764,28.06,0,109.6,13.53,2.27,294.6
"2009-02-19 01:39:00",642785,15.15,337.5,3.748,0.69,8.44,100.87,1.519,2.743,27.79,0,109.6,13.53,2.28,299.5
"2009-02-19 01:39:30",642786,14.88,338.3,3.763,0.586,8.17,100.8703,1.52,2.736,27.31,0,109.6,13.53,2.28,300.3
"2009-02-19 01:40:00",642787,14.77,339.4,4.532,0.65,8.25,100.8887,1.567,2.769,26.64,0,109.6,13.53,2.32,301.4
"2009-02-19 01:40:30",642788,14.41,339,3.948,0.699,7.776,100.906,1.611,2.751,26.5,0,109.6,13.54,2.37,301.0
"2009-02-19 01:41:00",642789,13.83,340.9,5.327,0.66,7.814,100.908,1.616,2.788,26.75,0,109.6,13.53,2.37,302.9
"2009-02-19 01:41:30",642790,13.66,341.8,5.845,1.341,7.658,100.908,1.616,2.795,27.03,0,109.6,13.53,2.37,303.8
"2009-02-19 01:42:00",642791,14.9,338.5,3.474,0.728,7.498,100.9091,1.619,2.799,26.97,0,109.6,13.53,2.38,300.5
"2009-02-19 01:42:30",642792,14.49,338.7,4.093,0.763,7.523,100.9091,1.619,2.782,27.08,0,109.6,13.53,2.38,300.7
"2009-02-19 01:43:00",642793,16.94,335.9,5.419,0.836,7.846,100.9105,1.623,2.801,26.98,0,109.6,13.53,2.38,297.9
"2009-02-19 01:43:30",642794,15.59,334.1,4.405,1.121,7.764,100.9108,1.623,2.82,26.59,0,109.6,13.53,2.38,296.1
"2009-02-19 01:44:00",642795,14.21,339.1,5.65,0.641,7.737,100.9102,1.622,2.809,27.56,0,109.6,13.53,2.38,301.1
"2009-02-19 01:44:30",642796,15.25,340.7,4.824,0.597,7.901,100.9105,1.623,2.799,27.5,0,109.6,13.53,2.38,302.7
"2009-02-19 01:45:00",642797,14.68,338.6,4.194,0.954,7.596,100.8995,1.594,2.792,27.79,0,109.6,13.53,2.35,300.6
"2009-02-19 01:45:30",642798,17.25,335.8,5.06,1.054,7.753,100.8887,1.567,2.775,27.72,0,109.7,13.53,2.32,297.8
"2009-02-19 01:46:00",642799,17.64,335.8,5.19,1.001,8.17,100.887,1.563,2.779,26.95,0,109.6,13.53,2.32,297.8
"2009-02-19 01:46:30",642800,17.28,341.6,4.344,0.942,7.997,100.889,1.568,2.785,27.12,0,109.6,13.53,2.33,303.6
"2009-02-19 01:47:00",642801,20.07,334.5,3.343,0.896,8.36,100.8882,1.565,2.765,26.51,0,109.6,13.53,2.32,296.5
"2009-02-19 01:47:30",642802,18.94,331.2,4.682,0.997,8.44,100.8967,1.587,2.776,25.83,0,109.6,13.54,2.34,293.2
"2009-02-19 01:48:00",642803,18.7,335.9,4.35,1.578,8.33,100.9017,1.6,2.793,26.76,0,109.6,13.54,2.36,297.9
"2009-02-19 01:48:30",642804,19.25,337.1,3.765,0.843,8.77,100.9063,1.612,2.788,26.26,0,109.6,13.54,2.37,299.1
"2009-02-19 01:49:00",642805,19.21,335.9,4.489,0.736,8.94,100.9105,1.623,2.801,25.51,0,109.6,13.54,2.38,297.9
"2009-02-19 01:49:30",642806,18.55,334.1,4.813,1.008,8.95,100.9125,1.628,2.807,24.78,0,109.6,13.54,2.39,296.1